Overview Statistics Trail Chart Weather Telemetry Raw packets
 

This is the latest recevied weather packets stored in our database for station/object IZ8FMH-11. If no packets are shown the sender has not sent any weather packets the latest 10 day(s).

<< 11 12 13 14 15 16 17 >>
Time Temp. Humidity Pressure Rain* Wind** Luminosity Snow
1788019498 31.67° C 62% 1012.6 hPa - - - -
1788017698 31.67° C 66% 1012.5 hPa - - - -
1788015909 32.22° C 64% 1012.6 hPa - - - -
1788014098 32.22° C 59% 1012.8 hPa - - - -
1788012298 32.22° C 57% 1012.8 hPa - - - -
1788010498 32.22° C 58% 1013.3 hPa - - - -
1788008698 32.22° C 60% 1013.8 hPa - - - -
1788006898 32.22° C 60% 1013.7 hPa - - - -
1788005099 31.67° C 57% 1013.8 hPa - - - -
1788003299 31.11° C 54% 1013.5 hPa - - - -
1788001501 31.11° C 40% 1013.4 hPa - - - -
1787999699 30.56° C 54% 1013.8 hPa - - - -
1787997899 30.56° C 59% 1014.8 hPa - - - -
1787996099 30° C 55% 1015.5 hPa - - - -
1787994307 29.44° C 54% 1015.2 hPa - - - -
1787992499 29.44° C 56% 1014.8 hPa - - - -
1787990699 29.44° C 52% 1013.6 hPa - - - -
1787988898 28.89° C 53% 1014.1 hPa - - - -
1787987098 28.33° C 52% 1014.2 hPa - - - -
1787985298 28.33° C 48% 1013.8 hPa - - - -
1787983498 27.78° C 48% 1013.6 hPa - - - -
1787981698 27.78° C 48% 1012.7 hPa - - - -
1787979898 27.78° C 48% 1012.7 hPa - - - -
1787978098 27.78° C 49% 1012.6 hPa - - - -
1787976298 27.78° C 46% 1012.5 hPa - - - -

* Rain since midnight (hover to see other rain measurements)
** Current wind speed in m/s (hover to see current wind gust speed)